DW4174 Weather Reports


time (UTC)temp
C
wind
direction
speed
KPH
gust
KPH
rain 1hr
cm
rain 24hr
cm
rain mn
cm
humidity
%
barometer
mb
20260906062230 31 51 0.0 3.2 0.00 0.00 0.00 38 1009.7
20260906061330 31 0 0.0 0.0 0.00 0.00 0.00 38 1009.7
20260906054630 31 0 0.0 0.0 0.00 0.00 0.00 37 1009.8
20260906053730 31 57 0.0 1.6 0.00 0.00 0.00 36 1009.8
20260906052830 32 57 0.0 1.6 0.00 0.00 0.00 36 1009.8
20260906051930 32 57 0.0 1.6 0.00 0.00 0.00 35 1009.8
20260906051030 32 56 0.0 4.8 0.00 0.00 0.00 34 1009.9
20260906050130 32 19 0.0 3.2 0.00 0.00 0.00 34 1009.9
20260906045230 33 325 0.0 3.2 0.00 0.00 0.00 33 1009.7
20260906044330 33 323 1.6 4.8 0.00 0.00 0.00 33 1009.8
20260906042530 33 322 3.2 9.7 0.00 0.00 0.00 32 1009.8
20260906041630 33 311 4.8 11.3 0.00 0.00 0.00 32 1009.8
20260906040730 33 305 4.8 12.9 0.00 0.00 0.00 31 1009.9
20260906035830 33 305 4.8 12.9 0.00 0.00 0.00 31 1009.8
20260906034930 34 307 4.8 14.5 0.00 0.00 0.00 31 1009.8
20260906034030 34 312 6.4 12.9 0.00 0.00 0.00 31 1009.7
20260906033131 34 312 8.0 16.1 0.00 0.00 0.00 31 1009.5
20260906032230 34 306 8.0 17.7 0.00 0.00 0.00 30 1009.6
20260906031330 34 304 8.0 17.7 0.00 0.00 0.00 30 1009.4
20260906030430 34 308 9.7 14.5 0.00 0.00 0.00 30 1009.5
20260906025530 35 308 11.3 20.9 0.00 0.00 0.00 29 1009.4
20260906023730 35 306 9.7 19.3 0.00 0.00 0.00 28 1009.2
20260906022830 35 300 9.7 19.3 0.00 0.00 0.00 28 1009.1
20260906021930 35 302 9.7 20.9 0.00 0.00 0.00 28 1009.0
20260906021030 35 312 8.0 17.7 0.00 0.00 0.00 27 1009.0
20260906020130 35 295 8.0 16.1 0.00 0.00 0.00 27 1009.0
20260906015230 36 291 11.3 17.7 0.00 0.00 0.00 27 1008.9
20260906014330 36 291 8.0 16.1 0.00 0.00 0.00 27 1009.1
20260906013430 36 307 9.7 17.7 0.00 0.00 0.00 27 1009.1
20260906012530 36 299 11.3 19.3 0.00 0.00 0.00 26 1009.2
20260906011630 36 295 12.9 22.5 0.00 0.00 0.00 26 1009.2
20260906010730 37 288 12.9 22.5 0.00 0.00 0.00 26 1009.2
20260906005829 37 301 11.3 22.5 0.00 0.00 0.00 26 1009.1
20260906004030 37 301 11.3 20.9 0.00 0.00 0.00 25 1009.1
20260906003130 37 309 12.9 24.1 0.00 0.00 0.00 25 1009.2
20260906002229 38 290 12.9 22.5 0.00 0.00 0.00 24 1009.2
20260906001330 38 293 11.3 20.9 0.00 0.00 0.00 24 1009.1
20260906000430 38 296 12.9 22.5 0.00 0.00 0.00 24 1009.1
20260905235529 38 283 12.9 20.9 0.00 0.00 0.00 25 1009.0
20260905234630 38 280 12.9 29.0 0.00 0.00 0.00 24 1009.1
20260905233730 39 299 12.9 25.7 0.00 0.00 0.00 24 1009.1
20260905232829 39 281 12.9 24.1 0.00 0.00 0.00 25 1009.1
20260905231929 39 299 11.3 17.7 0.00 0.00 0.00 25 1009.1
20260905231029 38 299 11.3 25.7 0.00 0.00 0.00 25 1009.1
20260905230129 39 301 14.5 25.7 0.00 0.00 0.00 26 1009.2
20260905225230 39 291 8.0 30.6 0.00 0.00 0.00 26 1009.1
20260905224329 38 352 3.2 19.3 0.00 0.00 0.00 28 1009.1
20260905223430 38 26 8.0 19.3 0.00 0.00 0.00 28 1009.1
20260905221630 38 280 11.3 22.5 0.00 0.00 0.00 28 1009.4
20260905215829 37 328 8.0 14.5 0.00 0.00 0.00 30 1009.6
20260905214929 37 307 11.3 22.5 0.00 0.00 0.00 29 1009.9
20260905214029 38 284 6.4 20.9 0.00 0.00 0.00 29 1009.9
20260905213129 38 164 8.0 19.3 0.00 0.00 0.00 28 1010.1
20260905212229 40 257 11.3 16.1 0.00 0.00 0.00 27 1010.1
20260905211329 40 278 9.7 20.9 0.00 0.00 0.00 27 1010.2
20260905210429 39 257 3.2 22.5 0.00 0.00 0.00 28 1010.4
20260905205529 38 276 6.4 12.9 0.00 0.00 0.00 29 1010.4
20260905204630 39 270 6.4 16.1 0.00 0.00 0.00 28 1010.6
20260905203729 38 285 6.4 12.9 0.00 0.00 0.00 29 1010.8
20260905202830 39 268 4.8 12.9 0.00 0.00 0.00 27 1010.9
20260905201929 38 182 4.8 16.1 0.00 0.00 0.00 28 1011.0
20260905201029 38 212 3.2 16.1 0.00 0.00 0.00 28 1011.0
20260905200129 37 161 3.2 11.3 0.00 0.00 0.00 30 1011.1
20260905195229 38 133 3.2 9.7 0.00 0.00 0.00 28 1011.3
20260905194329 37 239 3.2 6.4 0.00 0.00 0.00 29 1011.4
20260905192529 37 218 4.8 14.5 0.00 0.00 0.00 28 1011.7
20260905191629 37 214 3.2 14.5 0.00 0.00 0.00 29 1011.8
20260905190729 36 152 3.2 9.7 0.00 0.00 0.00 30 1012.0
20260905185829 37 158 3.2 11.3 0.00 0.00 0.00 30 1012.2
20260905184929 37 219 4.8 11.3 0.00 0.00 0.00 29 1012.2
20260905183129 37 319 3.2 9.7 0.00 0.00 0.00 29 1012.5
20260905182229 37 252 3.2 14.5 0.00 0.00 0.00 30 1012.5
20260905181329 36 270 1.6 9.7 0.00 0.00 0.00 31 1012.6
20260905180429 36 215 3.2 8.0 0.00 0.00 0.00 31 1012.6
20260905175529 36 146 1.6 4.8 0.00 0.00 0.00 31 1012.6
20260905174629 35 148 3.2 6.4 0.00 0.00 0.00 32 1012.7
20260905173729 35 133 4.8 9.7 0.00 0.00 0.00 32 1012.7
20260905172829 35 81 1.6 11.3 0.00 0.00 0.00 32 1012.6
20260905171929 35 61 3.2 6.4 0.00 0.00 0.00 34 1012.6
20260905171029 35 76 3.2 9.7 0.00 0.00 0.00 32 1012.7
20260905170129 35 101 1.6 6.4 0.00 0.00 0.00 34 1012.7
20260905164329 33 98 1.6 4.8 0.00 0.00 0.00 35 1012.6
20260905163429 34 97 1.6 11.3 0.00 0.00 0.00 35 1012.6
20260905162529 33 102 3.2 6.4 0.00 0.00 0.00 37 1012.5
20260905160729 33 238 1.6 3.2 0.00 0.00 0.00 39 1012.6
20260905155829 33 205 1.6 4.8 0.00 0.00 0.00 40 1012.7
20260905154929 32 130 1.6 4.8 0.00 0.00 0.00 41 1012.6
20260905153129 32 170 1.6 4.8 0.00 0.00 0.00 43 1012.4
20260905152229 31 177 1.6 4.8 0.00 0.00 0.00 44 1012.3
20260905151329 31 178 1.6 3.2 0.00 0.00 0.00 45 1012.2
20260905150429 31 181 1.6 4.8 0.00 0.00 0.00 45 1012.2
20260905144629 31 93 0.0 8.0 0.00 0.00 0.00 44 1012.2
20260905143729 31 37 0.0 3.2 0.00 0.00 0.00 42 1012.2
20260905142829 30 0 0.0 0.0 0.00 0.00 0.00 44 1012.1
20260905141929 30 0 0.0 0.0 0.00 0.00 0.00 44 1012.0
20260905141029 30 0 0.0 0.0 0.00 0.00 0.00 46 1011.9
20260905135229 28 0 0.0 0.0 0.00 0.00 0.00 48 1011.8
20260905134329 28 0 0.0 0.0 0.00 0.00 0.00 48 1011.6
20260905133429 27 0 0.0 0.0 0.00 0.00 0.00 50 1011.4
20260905131629 27 0 0.0 0.0 0.00 0.00 0.00 50 1011.3
20260905130729 27 0 0.0 0.0 0.00 0.00 0.00 50 1011.2
20260905125829 27 0 0.0 0.0 0.00 0.00 0.00 49 1011.1
20260905124929 27 0 0.0 0.0 0.00 0.00 0.00 48 1011.0
20260905124028 27 0 0.0 0.0 0.00 0.00 0.00 49 1011.1
20260905122228 28 0 0.0 0.0 0.00 0.00 0.00 47 1011.0
20260905121328 28 36 0.0 1.6 0.00 0.00 0.00 47 1010.9
20260905120429 28 36 0.0 1.6 0.00 0.00 0.00 47 1010.7
20260905115529 27 0 0.0 0.0 0.00 0.00 0.00 48 1010.7
20260905114628 28 0 0.0 0.0 0.00 0.00 0.00 47 1010.7
20260905113729 28 37 0.0 1.6 0.00 0.00 0.00 46 1010.7
20260905112829 28 36 0.0 1.6 0.00 0.00 0.00 47 1010.6
20260905111928 28 0 0.0 0.0 0.00 0.00 0.00 46 1010.6
20260905111028 28 0 0.0 0.0 0.00 0.00 0.00 46 1010.6
20260905110128 28 0 0.0 0.0 0.00 0.00 0.00 45 1010.5
20260905105229 28 0 0.0 0.0 0.00 0.00 0.00 45 1010.5
20260905104328 28 0 0.0 0.0 0.00 0.00 0.00 44 1010.5
20260905103428 28 0 0.0 0.0 0.00 0.00 0.00 44 1010.4
20260905102528 29 0 0.0 0.0 0.00 0.00 0.00 44 1010.3
20260905101628 30 0 0.0 0.0 0.00 0.00 0.00 43 1010.4
20260905100728 30 0 0.0 0.0 0.00 0.00 0.00 42 1010.3
20260905094028 30 37 0.0 3.2 0.00 0.00 0.00 41 1010.3
20260905093128 30 37 0.0 3.2 0.00 0.00 0.00 41 1010.3
20260905092228 30 0 0.0 0.0 0.00 0.00 0.00 40 1010.3
20260905091328 30 37 0.0 3.2 0.00 0.00 0.00 40 1010.3
20260905085528 30 0 0.0 0.0 0.00 0.00 0.00 41 1010.2
20260905084628 30 0 0.0 0.0 0.00 0.00 0.00 41 1010.3
20260905083728 30 0 0.0 0.0 0.00 0.00 0.00 41 1010.3
20260905081928 30 0 0.0 0.0 0.00 0.00 0.00 39 1010.3
20260905080128 30 0 0.0 0.0 0.00 0.00 0.00 39 1010.3
20260905075228 30 0 0.0 0.0 0.00 0.00 0.00 39 1010.3
20260905074328 31 0 0.0 0.0 0.00 0.00 0.00 37 1010.3
20260905073428 31 276 1.6 1.6 0.00 0.00 0.00 37 1010.2
20260905072528 32 276 1.6 3.2 0.00 0.00 0.00 36 1010.2
20260905071628 32 275 0.0 4.8 0.00 0.00 0.00 35 1010.2
20260905070728 32 275 0.0 4.8 0.00 0.00 0.00 36 1010.2
20260905065828 32 276 1.6 4.8 0.00 0.00 0.00 35 1010.1
20260905064928 32 276 1.6 6.4 0.00 0.00 0.00 34 1010.2
20260905064028 32 263 1.6 4.8 0.00 0.00 0.00 34 1010.1
20260905063128 32 258 1.6 4.8 0.00 0.00 0.00 34 1010.0